This demonstration page uses our WeatherBlox Daily Observations layout. Learn more.

Left ArrowRight Arrow

30.21309, -93.2044

Hourly Observations for August 17, 2020

Temp ( °F °C ) Dew Point ( °F °C ) Humidity (%) Winds ( mph kmh ) Pressure ( in mb ) Visibility ( mi km ) Precip ( " mm )
12:15 am 00:15 Clear 85 29.4 80 26.6 85 85 SW 6 9 30.00 1016 10 16 0.00 0.00
12:35 am 00:35 Clear 85 29.7 80 26.6 83 83 SW 5 7 30.00 1016 10 16 0.00 0.00
12:55 am 00:55 Clear 86 29.8 80 26.6 83 83 SW 6 9 29.98 1015 10 16 0.00 0.00
1:15 am 01:15 Clear 86 29.9 79 26.3 81 81 W 7 11 29.97 1015 10 16 0.00 0.00
1:35 am 01:35 Clear 85 29.6 79 26 81 81 W 7 11 29.97 1015 10 16 0.00 0.00
1:55 am 01:55 Clear 86 30 78 25.3 76 76 W 7 11 29.97 1015 10 16 0.00 0.00
2:15 am 02:15 Clear 85 29.5 78 25.3 78 78 Calm 29.98 1015 10 16 0.00 0.00
2:35 am 02:35 Clear 84 29.1 78 25.3 80 80 NW 5 7 29.99 1016 10 16 0.00 0.00
2:55 am 02:55 Clear 84 28.7 78 25.5 83 83 WNW 5 7 30.00 1016 10 16 0.00 0.00
3:15 am 03:15 Mostly Cloudy 84 28.9 79 26 84 84 WNW 5 7 30.00 1016 10 16 0.00 0.00
3:35 am 03:35 Cloudy 84 29.1 79 26.3 85 85 W 13 20 29.99 1016 10 16 0.00 0.00
3:55 am 03:55 Cloudy 82 27.8 79 26.1 90 90 WNW 13 20 29.98 1015 10 16 0.00 0.00
4:15 am 04:15 Partly Cloudy with Nearby Thunderstorms 80 26.9 74 23.6 82 82 NW 18 30 29.99 1016 10 16 0.00 0.00
4:35 am 04:35 Mostly Cloudy with Nearby Thunderstorms 80 26.4 72 22.4 79 79 N 13 20 30.02 1017 10 16 0.00 0.00
4:55 am 04:55 Cloudy with Thunderstorms 79 25.9 72 22 79 79 NW 15 24 30.00 1016 7 11 0.00 0.00
5:15 am 05:15 Mostly Cloudy with Thunderstorms 78 25.5 72 22.1 82 82 NW 16 26 29.98 1015 10 16 0.00 0.00
5:35 am 05:35 Partly Cloudy with Thunderstorms 77 25.2 72 22 82 82 NW 21 33 29.99 1016 10 16 0.00 0.00
6:00 am 06:00 Partly Cloudy with Thunderstorms 77 25 72 22 83 83 NW 16 26 30.02 1017 10 16 0.00 0.00
6:53 am 06:53 Mostly Sunny 77 25 72 22 83 83 NNW 14 22 30.03 1017 10 16 0.00 0.00
7:54 am 07:54 Partly Cloudy 77 25 72 22 83 83 N 10 17 30.05 1018 10 16 0.00 0.00
8:47 am 08:47 Mostly Sunny 79 26 72 22 79 79 N 8 13 30.06 1018 10 16 0.00 0.00
9:55 am 09:55 Mostly Sunny 81 27 73 23 79 79 N 10 17 30.07 1018 10 16 0.00 0.00
10:51 am 10:51 Mostly Sunny 82 28 73 23 74 74 NNE 9 15 30.06 1018 10 16 0.00 0.00
11:45 am 11:45 Mostly Sunny 84 29 75 24 74 74 NNE 9 15 30.04 1017 10 16 0.00 0.00
12:53 pm 12:53 Mostly Sunny 90 32 66 19 46 46 NNE 10 17 30.03 1017 10 16 0.00 0.00
1:45 pm 13:45 Mostly Sunny 90 32 66 19 46 46 N 12 19 30.02 1017 10 16 0.00 0.00
2:50 pm 14:50 Mostly Sunny 91 33 61 16 36 36 NNE 10 17 30.00 1016 10 16 0.00 0.00
3:55 pm 15:55 Mostly Sunny 91 33 63 17 38 38 NE 9 15 29.98 1015 10 16 0.00 0.00
4:50 pm 16:50 Mostly Sunny 91 33 63 17 38 38 NE 8 13 29.97 1015 10 16 0.00 0.00
5:50 pm 17:50 Mostly Sunny 91 33 63 17 38 38 NNE 7 11 29.97 1015 10 16 0.00 0.00
6:50 pm 18:50 Mostly Sunny 88 31 64 18 46 46 NNE 5 7 29.96 1015 10 16 0.00 0.00
7:55 pm 19:55 Mostly Clear 86 30 66 19 52 52 NNE 3 6 29.96 1015 10 16 0.00 0.00
8:50 pm 20:50 Mostly Clear 81 27 70 21 70 70 Calm 29.97 1015 10 16 0.00 0.00
9:50 pm 21:50 Mostly Clear 79 26 70 21 74 74 N 3 6 29.99 1016 10 16 0.00 0.00
10:15 pm 22:15 Clear 76 24.3 71 21.8 86 86 ENE 5 7 29.99 1016 10 16 0.00 0.00
10:35 pm 22:35 Clear 78 25.3 71 21.6 80 80 N 5 7 30.00 1016 10 16 0.00 0.00
10:55 pm 22:55 Clear 77 25.2 70 21.2 79 79 NNE 6 9 30.00 1016 10 16 0.00 0.00
11:15 pm 23:15 Clear 77 25.1 70 21.3 80 80 NNE 5 7 29.99 1016 10 16 0.00 0.00
11:35 pm 23:35 Clear 77 25 70 21 79 79 N 5 7 29.99 1016 10 16 0.00 0.00
11:55 pm 23:55 Clear 76 24.6 69 20.7 79 79 NNE 5 7 29.99 1016 10 16 0.00 0.00

Powered by AerisWeather